Powrót do katalogu

STARLINK-11652

AktywnyŁącznośćVLEO
NORAD 63315·PAYLOAD·🇺🇸 United States

Wystrzelony Mar 18, 2025 z Cape Canaveral Space Force Station

Loading…

Następne Przeloty (najbliższe 24 godziny)

TLE

ŚwieżeSource: CelesTrak SupGP

Epoka: Sep 15, 2026, 02:34 UTC

1 63315C 25057J   26258.10743056 -.00064495  00000+0 -50090-3 0  2580
2 63315  43.0003 202.7497 0001497 265.2931 268.9581 15.70872254    11

Śledź STARLINK-11652 w czasie rzeczywistym z AllMySat

Download on the App Store